Key West NAF, FL

7:23 AM EDT on June 25, 2017 (GMT -0400)
Key West Naval Air Station

Weather History for KNQX - January, 2014

Change the Weather History Date:

Wednesday, January 29, 2014

  Actual Average Record
Temperature  
Mean Temperature 74 °F -  
Max Temperature 81 °F 73 °F 86 °F (1991)
Min Temperature 66 °F 64 °F 46 °F (1986)
Cooling Degree Days 10    
Growing Degree Days 24 (Base 50)    
Moisture  
Dew Point 69 °F    
Average Humidity 89    
Maximum Humidity 97    
Minimum Humidity 77    
Precipitation  
Precipitation 1.19 in - - ()
Sea Level Pressure  
Sea Level Pressure 30.01 in    
Wind  
Wind Speed 8 mph (NNE)    
Max Wind Speed 18 mph    
Max Gust Speed 25 mph    
Visibility 8 miles    
Events Rain , Thunderstorm    
Averages and records for this station are not official NWS values.
T = Trace of Precipitation, MM = Missing Value Source: NWS Daily Summary

Daily Weather History Graph

Daily Weather History Graph

Search for Another Location

Airport or City:

Trip Planner

Search our weather history database for the weather conditions in past years. The results will help you decide how hot, cold, wet, or windy it might be!

Date:

Astronomy

Jan. 29, 2014 Rise Set
Actual Time 7:09 AM EST 6:10 PM EST
Civil Twilight 6:46 AM EST 6:34 PM EST
Nautical Twilight 6:18 AM EST 7:01 PM EST
Astronomical Twilight 5:51 AM EST 7:28 PM EST
Moon 5:44 AM EST (1/29) 5:07 PM EST (1/29)
Length of Visible Light 11h 48m
Length of Day
11h 00m
Waning Crescent, 2% of the Moon is Illuminated
Jan 29
Waning Crescent
Jan 30
New
Feb 6
First Quarter
Feb 14
Full
Feb 22
Last Quarter

Hourly Weather History & Observations

Time (EST) Temp. Heat Index Dew Point Humidity Pressure Visibility Wind Dir Wind Speed Gust Speed Precip Events Conditions
12:53 AM 73.9 °F - 71.1 °F 91% 30.03 in 10.0 mi East 3.5 mph - N/A   Mostly Cloudy
1:53 AM 73.9 °F - 72.0 °F 93% 30.01 in 9.0 mi SE 3.5 mph - 0.01 in   Overcast
2:53 AM 72.0 °F - 70.0 °F 93% 30.00 in 10.0 mi SE 10.4 mph 17.3 mph 0.08 in Rain , Thunderstorm Light Thunderstorms and Rain
3:29 AM 71.6 °F - 69.8 °F 94% 29.99 in 1.8 mi SSW 6.9 mph - 0.39 in Rain , Thunderstorm Heavy Thunderstorms and Rain
3:39 AM 71.6 °F - 69.8 °F 94% 30.00 in 3.0 mi Calm Calm - 0.46 in Rain , Thunderstorm Light Thunderstorms and Rain
3:47 AM 71.6 °F - 69.8 °F 94% 30.02 in 2.5 mi WSW 13.8 mph 20.7 mph 0.68 in Rain , Thunderstorm Thunderstorms and Rain
3:53 AM 71.1 °F - 70.0 °F 96% 29.99 in 1.0 mi West 10.4 mph 20.7 mph 0.93 in Rain , Thunderstorm Heavy Thunderstorms and Rain
3:56 AM 71.6 °F - 69.8 °F 94% 29.99 in 1.2 mi WNW 6.9 mph 20.7 mph 0.05 in Rain , Thunderstorm Heavy Thunderstorms and Rain
4:02 AM 71.6 °F - 69.8 °F 94% 30.00 in 2.0 mi West 11.5 mph - 0.12 in Rain , Thunderstorm Thunderstorms and Rain
4:08 AM 71.6 °F - 69.8 °F 94% 29.99 in 3.0 mi WSW 6.9 mph - 0.16 in Rain , Thunderstorm Rain
4:53 AM 72.0 °F - 70.0 °F 93% 29.98 in 10.0 mi South 3.5 mph - 0.17 in   Mostly Cloudy
5:00 AM - - - N/A% - - North - - N/A   Unknown
5:53 AM 72.0 °F - 70.0 °F 93% 29.99 in 10.0 mi South 4.6 mph - N/A   Mostly Cloudy
6:53 AM 72.0 °F - 71.1 °F 97% 30.01 in 10.0 mi Calm Calm - N/A   Mostly Cloudy
7:53 AM 73.9 °F - 72.0 °F 93% 30.02 in 10.0 mi SE 4.6 mph - N/A   Mostly Cloudy
8:53 AM 77.0 °F - 73.0 °F 88% 30.04 in 10.0 mi South 5.8 mph - N/A   Mostly Cloudy
9:53 AM 77.0 °F - 73.0 °F 88% 30.04 in 10.0 mi Variable 4.6 mph - N/A   Mostly Cloudy
10:53 AM 79.0 °F - 73.0 °F 82% 30.04 in 10.0 mi North 4.6 mph - N/A   Mostly Cloudy
11:53 AM 80.1 °F 84.2 °F 73.0 °F 79% 30.03 in 10.0 mi Variable 3.5 mph - N/A   Mostly Cloudy
12:53 PM 81.0 °F 85.8 °F 73.0 °F 77% 30.01 in 10.0 mi North 5.8 mph - N/A   Mostly Cloudy
1:53 PM 81.0 °F 85.8 °F 73.0 °F 77% 29.99 in 10.0 mi Variable 4.6 mph - N/A   Mostly Cloudy
2:53 PM 75.0 °F - 69.1 °F 82% 29.98 in 10.0 mi North 12.7 mph - N/A   Mostly Cloudy
3:25 PM 75.2 °F - 69.8 °F 83% 29.98 in 10.0 mi North 13.8 mph - N/A   Mostly Cloudy
3:53 PM 75.0 °F - 69.1 °F 82% 29.98 in 10.0 mi NNE 13.8 mph - N/A   Scattered Clouds
4:17 PM 73.4 °F - 69.8 °F 88% 29.98 in 10.0 mi NNE 11.5 mph - N/A   Scattered Clouds
4:53 PM 72.0 °F - 68.0 °F 87% 29.99 in 10.0 mi NNE 12.7 mph - N/A   Scattered Clouds
5:53 PM 71.1 °F - 68.0 °F 90% 29.99 in 10.0 mi NNE 12.7 mph - N/A   Scattered Clouds
6:53 PM 71.1 °F - 68.0 °F 90% 29.99 in 10.0 mi NNE 10.4 mph - N/A   Scattered Clouds
7:48 PM 71.6 °F - 68.0 °F 88% 30.01 in 8.0 mi NE 12.7 mph - N/A   Mostly Cloudy
7:53 PM 71.1 °F - 68.0 °F 90% 30.01 in 8.0 mi NNE 13.8 mph - N/A   Mostly Cloudy
8:18 PM 71.6 °F - 68.0 °F 88% 30.02 in 9.0 mi NE 9.2 mph - N/A   Mostly Cloudy
8:53 PM 70.0 °F - 66.9 °F 90% 30.03 in 9.0 mi NNE 13.8 mph - N/A   Overcast
9:53 PM 68.0 °F - 64.9 °F 90% 30.05 in 10.0 mi NNE 17.3 mph 23.0 mph N/A   Overcast
10:34 PM 68.0 °F - 64.4 °F 88% 30.06 in 10.0 mi NNE 15.0 mph 23.0 mph N/A   Overcast
10:53 PM 68.0 °F - 64.0 °F 87% 30.06 in 10.0 mi NNE 16.1 mph 24.2 mph N/A   Overcast
11:53 PM 66.9 °F - 63.0 °F 87% 30.06 in 10.0 mi NNE 18.4 mph 25.3 mph N/A   Overcast